Location: Bothwell
(42.3833°S, 147.0000°E)
Time: 22:31:33
(UTC+10:00)

CUTE 1.7 + AOD 2 - Pass Details

Date: 03 February 2023
Orbit: 584 x 601 km, 97.7° (Epoch: 02 April)

Event Time Altitude Azimuth Distance (km) Brightness Sun altitude
Exits shadow 03:09:05 16° 71° (ENE) 1,576 ? -26.2°
Maximum altitude 03:11:16 24° 113° (ESE) 1,259 ? -26.1°
Drops below altitude 10° 03:14:39 10° 166° (SSE) 1,949 ? -25.8°
Sets 03:17:09 0° 179° (S) 2,862 ? -25.5°
